Portada
METAR-TAF:

METAR-TAF

Aeroports :

Sheboygan County Memorial Airport

Sheboygan, Wisconsin, Estats Units d'Amèrica

latitud: 43-46-35N, longitud: 087-50-59W, altitud: 228 m

Observació

L'informe es va fer fa 42 minuts, a les 15:53 UTC
Vent calma
Temperatura 15°C
Humitat 48%
Pressió 1028 hPa
Visibilitat: 16.1 km
Cel clar

METAR: KSBM 221553Z AUTO 00000KT 10SM CLR 15/04 A3035 RMK AO2 SLP281 T01500039

Hora: 11:35 (16:35 UTC)


TAF: manca

Observacions i pronòstics meteorològics de més de 4000 aeroports (METAR i TAF).

Les estacions disponibles són els punts grocs i vermells al mapa.

Posi el ratolí al punt desitjat per veure el nom de l'estació.

Feu clic per veure les observacions i els pronòstics meteorològics.

Per canviar el mapa: feu clic els botons verds amb una creu de color negre per apropar; al botó verd amb un guió per allunyar la imatge; o en les fletxes verdes per a mapes adjacents.


METAR-TAF: